Date,TemperatureHighF,TemperatureAvgF,TemperatureLowF,DewpointHighF,DewpointAvgF,DewpointLowF,HumidityHigh,HumidityAvg,HumidityLow,PressureMaxIn,PressureMinIn,WindSpeedMaxMPH,WindSpeedAvgMPH,GustSpeedMaxMPH,PrecipitationSumIn
2013-7-1,85.5,80.7,76.1,77.8,72.9,64.1,92,79,49,29.93,29.81,20,9,20,0.00
2013-7-2,86.9,81.4,78.0,75.7,71.3,63.2,91,73,48,30.00,29.91,13,5,13,0.00
2013-7-3,84.7,79.2,75.4,75.1,72.9,70.0,91,81,66,29.99,29.87,14,5,15,0.00
2013-7-4,84.0,80.4,75.3,75.9,74.6,72.8,92,83,74,29.95,29.86,14,5,14,0.00
2013-7-5,84.6,81.4,78.3,77.1,75.5,72.6,91,83,70,29.92,29.81,16,7,16,0.00
2013-7-6,84.8,81.7,78.7,78.7,77.2,74.9,94,86,78,29.87,29.80,18,8,18,0.00
2013-7-7,86.6,82.0,79.4,78.0,76.4,73.9,90,83,67,29.95,29.83,18,8,18,0.00
2013-7-8,85.9,82.7,78.9,79.4,77.7,73.4,90,85,79,30.07,29.94,20,10,20,0.00
2013-7-9,85.7,82.9,80.6,79.7,78.3,77.3,91,86,79,30.08,29.99,17,9,17,0.00
2013-7-10,86.5,83.5,80.6,78.9,77.7,76.0,89,83,75,30.05,29.92,16,8,16,0.00
2013-7-11,86.9,83.6,80.3,78.2,77.1,76.0,88,81,72,29.97,29.87,20,9,20,0.00
2013-7-12,87.4,83.1,79.5,77.6,76.2,74.7,89,80,69,29.92,29.86,17,8,17,0.00
2013-7-13,86.9,82.6,79.1,77.6,76.0,74.3,90,81,68,29.93,29.84,16,6,16,0.00
2013-7-14,86.8,82.9,78.7,77.9,76.7,75.1,89,82,73,29.90,29.81,21,9,21,0.00
2013-7-15,85.8,83.3,81.4,78.5,76.9,74.7,87,81,75,29.93,29.82,20,12,20,0.00
2013-7-16,84.9,80.9,76.0,78.0,75.7,72.5,93,84,75,30.01,29.90,22,13,22,0.69
2013-7-17,82.3,77.8,74.0,77.7,74.5,70.9,95,89,83,30.11,29.99,20,6,20,1.79
2013-7-18,83.2,79.7,73.9,77.1,75.2,71.4,93,86,78,30.08,29.94,21,7,21,0.27
2013-7-19,85.0,82.2,79.1,77.4,76.3,75.0,89,83,76,30.01,29.88,20,8,20,0.00
2013-7-20,85.6,82.9,80.8,78.3,76.7,75.2,87,82,76,29.94,29.83,16,9,16,0.00
2013-7-21,88.9,84.8,82.2,80.4,78.8,77.6,88,82,73,29.93,29.86,21,11,21,0.00
2013-7-22,88.4,84.9,82.4,80.5,79.2,78.3,88,83,74,29.97,29.88,22,13,22,0.00
2013-7-23,88.1,84.4,81.7,79.0,77.6,75.8,87,80,73,29.98,29.87,20,12,20,0.00
2013-7-24,88.1,83.9,81.4,79.1,77.6,76.1,88,81,73,29.95,29.84,20,11,20,0.00
2013-7-25,87.6,83.9,81.0,80.3,78.3,76.0,88,83,78,29.99,29.93,20,9,20,0.00
2013-7-26,87.7,84.0,81.2,80.5,78.4,76.6,89,84,78,30.00,29.88,20,11,20,0.00
2013-7-27,86.9,83.2,80.1,79.3,78.3,77.4,93,85,76,29.93,29.79,20,10,20,0.00
2013-7-28,87.3,83.1,79.8,79.6,78.6,77.6,93,86,76,29.91,29.83,21,10,21,0.00
2013-7-29,86.8,82.8,79.7,79.1,78.1,77.4,93,86,77,30.02,29.90,20,10,20,0.00
2013-7-30,86.8,82.3,79.2,79.8,78.2,76.9,94,88,79,30.07,29.98,20,10,20,0.00
2013-7-31,85.4,81.9,78.0,79.4,77.8,75.8,93,88,80,30.05,29.93,16,7,16,0.00